Theta_e
313 312 313 313 313 316 319 320 324 327 327 329 328 322 318 319 320 320 322 321 320 320 318 318 319 318 319 319 319 318 318 321 321 322 322 323 321 318 318 317 320 319 318 319 321 325 326 328 329 330 330 330 330 329 329 329 329 329 329 329 329 328 324 320 318 317 316 317 317 317 318 318 318 318 318 318 318 317 317 318 319 323 329 331 333 336 336 334 331 329 328 328 328 328 326 325 325
313 313 313 312 316 320 321 322 328 336 332 321 321 320 317 320 320 322 325 323 322 320 318 319 319 319 319 319 319 319 319 320 319 320 320 321 320 319 319 317 319 319 319 318 319 322 324 326 327 329 330 330 330 329 329 328 328 327 327 328 329 327 322 319 317 317 318 319 319 319 319 319 319 319 320 320 319 319 319 320 322 327 331 331 333 337 337 335 331 329 329 330 330 330 330 328 327
313 313 313 314 320 321 324 323 328 337 331 318 321 326 321 317 322 326 324 322 320 318 319 319 320 321 319 320 319 319 321 320 320 319 319 320 320 320 320 318 318 320 320 318 319 320 322 324 326 328 328 329 329 329 328 327 327 326 327 327 328 326 320 318 318 318 319 320 320 320 320 319 318 319 323 325 322 321 322 322 326 331 333 333 333 336 337 334 331 329 329 329 329 328 328 329 330
313 313 313 318 321 323 334 334 337 340 327 321 321 324 325 320 326 325 319 318 319 318 319 318 320 320 320 321 320 319 320 320 321 320 320 321 320 320 319 317 318 319 319 319 319 319 320 322 324 326 327 327 328 328 328 327 327 326 327 327 328 324 319 318 318 319 319 320 321 320 320 318 319 322 327 330 326 324 324 324 328 333 334 334 335 336 337 334 330 327 325 324 323 322 321 323 327
314 315 314 319 322 321 333 332 332 333 323 325 320 319 330 328 327 321 317 318 318 319 318 318 320 320 320 320 320 320 320 320 321 320 320 320 318 318 317 317 318 319 319 320 319 318 319 320 323 325 326 326 327 327 327 327 326 325 326 327 328 324 319 318 319 319 320 320 321 321 321 319 322 327 331 332 330 328 326 326 329 333 334 335 336 336 336 334 330 324 321 318 317 316 315 315 317
318 319 317 319 320 317 328 324 322 327 327 329 320 323 334 325 321 317 316 318 318 319 319 319 319 319 319 319 320 320 320 321 321 320 319 319 317 317 317 317 317 318 319 320 320 319 319 320 321 323 325 325 326 326 326 327 325 325 326 327 328 324 320 318 319 320 320 320 320 322 323 323 325 330 332 333 332 330 328 329 330 333 334 335 335 335 335 333 329 324 321 319 317 315 313 312 312
321 322 319 321 320 318 331 326 325 332 324 321 319 323 325 317 315 315 317 319 319 319 319 319 319 319 319 319 320 320 320 320 320 320 319 317 317 316 316 317 317 316 318 319 319 320 319 319 320 322 323 324 325 325 325 326 325 325 325 327 327 326 321 318 319 320 320 321 321 323 325 325 326 331 333 333 333 331 329 329 330 332 333 334 333 332 331 329 326 322 319 317 316 316 314 311 311
321 320 317 327 330 328 335 326 329 333 318 315 317 317 316 315 314 316 318 317 318 318 319 319 318 320 319 318 319 320 319 320 320 320 320 317 317 316 316 316 316 316 316 317 319 320 319 319 320 321 322 324 324 324 325 325 325 324 324 326 327 327 323 319 319 320 320 321 321 323 326 325 326 329 332 334 334 332 329 328 328 330 330 329 327 326 323 322 320 318 317 314 313 314 314 311 309
319 320 318 326 330 332 337 327 325 325 322 320 315 316 315 316 316 316 319 317 317 317 318 319 318 319 319 318 319 320 319 319 320 320 319 317 316 316 316 316 316 316 316 316 317 319 320 320 319 320 321 322 323 324 325 325 325 324 324 325 326 327 325 321 319 320 321 321 322 324 326 325 325 328 331 333 334 333 329 327 327 327 327 325 324 322 321 322 322 321 319 313 309 310 311 310 308
319 320 318 325 330 330 329 325 325 322 324 320 313 317 316 316 316 316 318 317 317 316 317 319 319 319 318 319 319 319 319 319 320 320 318 316 317 316 316 315 316 316 315 315 315 318 319 320 319 320 320 321 322 323 324 325 325 324 324 324 324 326 326 323 320 320 321 322 323 325 327 325 325 329 331 333 334 333 330 328 327 328 327 327 327 326 325 324 321 319 315 309 307 308 308 308 307
321 319 319 331 334 326 322 324 330 328 325 318 315 317 316 317 316 316 317 316 316 316 317 318 319 319 318 318 319 319 319 319 320 320 318 316 317 316 316 316 316 316 315 316 315 316 318 319 320 320 320 321 321 321 323 324 324 324 324 324 324 324 326 326 323 322 321 323 325 326 327 327 326 328 331 332 333 333 331 329 329 330 330 329 328 326 323 319 314 312 309 307 306 306 306 306 306
320 322 332 341 331 323 324 326 329 331 331 323 319 317 316 316 316 316 316 315 316 315 316 318 318 319 317 318 318 317 317 318 319 320 319 317 317 316 316 316 316 316 316 316 315 315 317 318 319 320 320 320 320 320 322 323 323 323 324 324 324 324 325 326 325 325 323 324 327 327 327 327 326 328 330 332 333 333 331 330 330 330 330 328 326 323 319 314 310 308 307 306 305 305 305 305 305
320 323 335 331 324 325 323 324 328 331 331 322 316 317 317 315 316 316 315 315 315 315 317 317 318 319 317 318 317 316 318 318 317 319 319 317 317 317 316 316 317 316 316 316 316 315 315 317 318 319 320 320 320 320 320 322 323 322 323 323 324 324 324 325 326 325 325 325 327 328 327 326 326 327 329 332 333 333 331 330 330 330 329 327 324 320 316 311 307 306 306 305 304 304 304 304 304
320 321 327 322 320 327 322 321 325 324 321 318 316 316 317 316 316 316 316 316 315 316 317 317 318 318 317 316 316 316 317 316 316 317 317 317 317 317 317 317 317 317 317 316 316 316 315 316 316 317 319 319 320 320 321 321 322 322 323 323 324 324 324 325 325 325 325 326 327 327 327 326 326 326 328 331 332 333 331 330 330 329 328 326 323 318 314 310 306 306 305 304 304 304 304 305 305
319 319 327 325 321 325 322 321 323 322 319 318 316 315 316 316 316 316 316 317 317 316 317 318 317 317 317 316 316 316 316 316 316 316 316 317 317 317 317 317 317 317 317 317 316 315 316 315 315 316 317 319 320 320 320 320 321 321 322 324 324 325 325 325 325 325 325 326 326 326 327 326 325 325 325 327 331 332 331 331 330 329 328 326 322 318 314 309 306 305 304 304 304 304 304 305 306
318 318 325 324 318 321 321 320 321 323 321 317 315 315 316 316 316 316 316 316 317 316 316 317 316 317 316 316 316 316 316 316 316 316 316 316 317 318 317 317 317 317 317 317 316 315 315 315 315 316 316 317 319 320 321 321 321 322 322 323 325 325 325 325 325 325 325 325 325 325 326 327 326 326 325 324 327 329 330 331 330 329 327 323 320 317 314 309 305 304 304 304 304 304 305 306 307
315 319 327 323 320 321 321 323 321 321 324 318 315 315 315 315 316 315 316 316 316 316 316 316 316 316 316 316 316 315 316 316 316 316 315 316 316 317 318 317 317 316 317 317 317 316 315 315 315 315 316 316 317 319 321 322 322 323 323 323 325 326 326 326 326 326 325 325 325 325 326 328 328 327 327 326 326 328 329 330 328 325 322 319 316 315 313 308 305 304 304 304 304 304 306 307 308
318 327 325 321 326 326 325 327 319 317 321 317 314 315 314 315 316 315 315 316 316 315 315 316 315 315 315 315 315 315 315 315 316 315 315 316 316 317 317 317 317 317 317 317 317 316 316 316 315 315 315 316 317 318 320 322 323 324 324 324 325 326 327 327 328 327 326 325 325 326 327 328 328 327 327 327 326 326 327 325 322 319 317 315 314 313 311 307 305 304 304 304 304 305 307 308 308
322 327 320 325 333 325 319 321 316 315 317 315 315 315 313 314 315 314 315 314 314 315 315 315 315 315 315 315 315 315 315 315 315 315 315 315 315 316 316 316 316 316 317 317 317 317 317 316 316 316 315 316 316 317 318 320 322 324 325 326 325 326 327 327 328 328 328 327 327 327 328 328 328 328 327 326 325 323 322 320 317 316 314 313 312 311 309 306 305 304 304 304 304 305 307 307 307
319 320 323 333 328 316 315 316 316 316 316 314 314 314 313 314 314 314 314 313 314 315 316 315 315 315 315 315 315 315 315 315 315 315 315 315 316 315 316 316 316 316 316 317 317 317 317 317 316 316 316 316 316 317 317 319 321 322 324 326 326 326 327 326 327 328 329 329 329 329 329 328 328 328 328 327 326 323 321 318 315 314 313 312 311 310 308 306 304 304 304 304 304 306 307 307 307
316 318 327 329 316 315 319 316 317 317 315 314 313 314 313 315 315 315 314 315 315 315 315 315 314 315 315 315 315 315 315 314 314 314 314 314 315 315 315 316 316 316 317 317 317 316 317 317 317 316 316 316 316 317 317 318 319 321 323 325 326 326 326 326 326 327 328 329 329 330 330 329 329 329 328 328 328 326 323 320 316 315 314 312 311 310 308 306 304 304 304 303 304 306 307 307 307
317 319 321 318 313 317 318 316 318 317 315 314 313 314 315 315 315 315 315 315 316 315 316 315 315 315 314 315 315 315 314 314 314 314 314 314 314 315 315 315 316 316 316 316 316 316 317 317 317 317 316 316 316 316 317 318 319 320 322 324 326 327 327 327 326 326 327 328 329 329 329 330 329 330 329 327 328 327 325 322 320 318 316 313 311 310 308 306 305 304 303 303 304 306 307 307 307
320 320 317 316 316 316 318 317 317 317 316 314 314 315 314 314 314 314 314 314 316 316 316 315 315 315 314 314 314 314 314 314 315 314 314 314 314 314 315 315 315 315 315 316 316 316 317 317 317 317 316 316 316 316 317 318 318 319 320 323 326 328 328 328 326 325 326 328 328 328 328 329 329 329 328 327 327 326 325 324 323 321 318 316 312 309 308 306 305 303 303 303 303 306 307 307 307
319 321 317 316 316 314 316 316 315 316 315 315 314 313 312 313 314 314 313 315 316 315 315 314 314 314 313 314 314 314 315 314 314 314 315 314 314 314 314 315 315 315 315 315 315 315 316 317 317 317 317 316 316 317 317 317 318 318 319 321 323 325 327 328 327 326 327 328 328 328 328 328 328 327 328 327 326 326 326 326 326 324 320 319 316 311 308 307 305 303 303 303 303 305 306 307 306
318 321 316 314 314 314 315 314 314 315 314 315 313 311 312 313 313 312 313 316 316 315 315 314 314 314 314 315 314 314 314 314 314 315 315 314 315 314 314 315 314 315 315 315 315 315 315 316 317 317 317 317 317 317 318 318 318 318 318 319 320 321 324 325 325 326 328 330 329 329 330 328 327 327 326 326 325 325 326 327 326 325 323 321 319 315 310 307 306 304 303 302 303 304 306 306 306
316 316 314 312 313 313 314 314 314 314 313 313 312 312 312 313 312 312 315 316 316 316 315 314 314 314 314 315 314 314 314 314 314 314 314 314 315 315 315 315 315 315 315 315 315 315 315 315 317 317 317 317 317 318 318 319 319 319 319 319 319 320 322 323 325 326 328 330 329 330 332 329 328 327 326 326 326 326 326 326 325 324 324 323 321 319 315 311 308 305 303 302 302 303 304 306 306
313 312 312 312 312 313 313 313 314 313 312 312 312 313 312 311 312 315 317 316 315 315 314 314 314 314 314 314 314 314 314 314 314 314 314 314 314 314 315 315 315 315 315 315 315 315 315 315 317 317 317 317 317 318 319 320 320 320 321 321 321 321 322 323 326 328 328 329 328 328 331 329 328 327 326 327 326 326 325 324 324 323 324 324 323 321 320 315 311 308 305 302 301 302 303 304 305
313 312 313 312 311 312 313 312 313 312 312 312 312 313 312 310 312 316 316 316 315 314 313 312 313 313 313 313 313 313 313 314 314 313 313 313 314 314 314 314 314 315 315 315 315 315 315 316 317 317 317 317 317 318 319 320 321 321 322 322 322 323 323 324 326 327 328 328 327 327 329 329 328 328 328 328 326 325 324 323 323 323 323 324 323 322 322 319 313 310 308 304 301 301 302 303 304
312 312 314 314 313 314 314 312 311 311 313 313 312 315 317 315 315 317 315 315 316 313 312 312 312 312 312 312 313 313 313 313 313 313 313 312 313 313 313 314 314 314 315 315 315 315 315 316 316 316 317 317 318 319 321 321 322 323 322 323 323 324 325 325 326 326 326 327 326 325 326 327 327 329 329 327 326 324 324 323 323 322 322 322 322 322 321 318 315 312 310 307 303 301 301 302 303
314 312 312 315 316 319 315 310 311 311 313 313 312 317 324 324 317 315 315 314 315 313 311 311 312 312 312 312 312 313 313 312 313 312 312 312 312 313 313 313 314 315 315 316 316 316 316 316 316 316 317 317 318 320 322 323 323 324 323 323 324 325 326 327 327 327 327 327 327 326 327 327 327 328 328 326 325 324 324 324 323 322 322 322 322 322 320 318 316 314 311 310 306 302 301 302 303
315 311 314 316 315 323 319 310 311 313 313 311 312 317 324 324 317 314 315 313 315 312 310 311 312 312 311 311 311 311 312 311 312 311 311 311 311 312 312 313 314 314 315 316 316 316 317 317 316 317 317 317 318 320 323 324 325 325 324 325 325 325 326 328 328 328 327 327 327 327 327 326 326 326 327 326 325 324 324 324 324 323 323 322 322 321 320 319 318 316 314 312 309 305 301 301 302
321 313 320 323 315 322 322 310 310 314 313 310 312 318 321 319 315 315 314 313 315 311 310 311 310 310 310 310 310 310 310 309 310 310 310 311 311 312 312 313 314 314 315 315 316 316 316 317 317 317 317 317 318 321 324 325 326 325 326 326 325 326 325 326 327 327 326 326 326 326 325 325 325 326 326 325 324 324 324 324 323 323 323 322 321 321 320 320 319 318 316 315 312 308 303 301 301
325 316 320 326 318 318 320 313 310 311 312 311 311 316 319 317 314 315 314 313 314 311 309 310 308 309 308 308 308 308 308 309 309 310 310 310 310 311 312 313 313 314 315 315 315 315 315 316 316 316 316 317 319 322 325 326 326 326 326 326 326 326 325 326 326 326 326 326 326 325 325 324 324 324 324 323 323 323 323 323 322 322 322 321 321 321 320 320 319 319 318 316 314 311 307 303 301
325 317 316 322 319 316 318 318 313 311 314 314 313 314 316 317 314 313 313 312 312 310 309 308 306 306 306 307 307 307 308 308 308 308 309 309 310 310 311 312 313 313 314 314 315 315 315 316 316 317 317 318 320 323 325 325 326 326 326 326 325 325 325 325 325 325 325 325 325 325 324 324 323 323 323 323 323 322 322 322 321 321 321 320 320 320 320 320 319 319 318 317 316 314 311 308 305
325 322 318 320 319 316 317 317 315 314 317 317 316 316 317 318 314 310 311 312 311 310 307 306 305 305 305 305 305 306 306 307 307 307 308 309 309 310 311 311 312 312 313 313 314 314 315 316 317 317 317 319 320 321 323 323 324 324 324 324 324 324 324 324 323 324 324 324 324 324 324 324 324 324 324 324 324 323 322 321 321 321 320 320 319 319 319 319 319 318 318 317 316 315 313 311 310
323 323 323 323 321 318 316 316 314 313 316 317 317 318 318 319 316 310 310 310 310 308 306 305 304 304 304 304 304 305 305 306 306 307 308 308 309 310 310 310 310 311 311 311 311 312 312 313 314 315 316 317 318 319 320 321 322 322 322 322 322 322 322 322 322 322 323 322 323 322 322 323 322 322 322 323 322 322 322 321 321 320 320 319 319 319 318 318 317 317 317 316 315 315 314 313 312
318 318 319 320 319 317 315 316 316 311 314 320 317 317 319 319 315 309 308 310 308 306 305 304 303 303 303 303 303 304 304 304 305 306 307 308 309 309 309 309 309 309 309 309 309 309 309 310 311 311 312 313 315 316 317 319 320 320 321 321 320 320 320 319 319 320 320 320 320 321 321 321 321 321 321 321 320 320 320 319 319 319 319 318 318 318 317 317 316 316 316 315 315 314 314 313 312
314 315 316 317 317 316 313 314 315 311 314 320 316 316 320 319 314 308 306 308 307 305 304 303 303 302 302 302 302 303 303 304 305 306 307 308 308 308 308 308 308 308 308 308 308 308 308 308 308 308 309 310 310 311 312 314 316 316 317 318 318 318 318 318 317 318 318 318 318 319 319 319 319 318 318 318 318 318 318 318 317 317 316 316 316 316 315 315 315 315 315 314 314 313 313 312 312
314 314 315 318 317 317 317 316 315 312 315 322 319 317 320 317 311 307 305 305 305 304 304 303 302 302 301 302 302 302 303 303 304 305 306 307 307 307 308 308 308 308 308 308 308 308 308 308 308 308 308 308 307 308 308 309 310 310 311 313 314 314 315 315 314 315 315 315 315 315 316 316 317 317 316 316 316 316 316 316 316 315 315 315 314 314 313 313 313 312 312 312 312 312 312 311 311
317 317 317 320 318 318 323 321 317 315 314 319 319 316 319 316 309 306 304 303 303 303 303 302 302 302 301 301 302 302 302 303 304 305 306 306 307 307 308 308 308 307 307 307 307 307 307 307 307 307 308 308 308 308 307 308 307 308 308 308 308 309 309 309 310 310 310 310 310 310 310 311 312 313 313 313 314 314 314 314 314 314 314 314 313 313 312 312 312 311 310 310 309 309 309 309 309
321 320 318 320 319 318 322 321 318 318 316 316 315 318 324 320 313 310 305 303 303 302 302 302 301 301 301 301 302 302 302 303 304 305 306 306 307 307 307 307 307 307 307 306 306 306 306 306 307 307 307 307 307 307 307 307 307 307 307 307 307 307 307 307 307 306 306 306 306 306 306 306 306 307 307 308 309 310 310 311 311 311 312 312 312 312 311 311 311 310 310 309 308 307 307 307 307
324 323 319 319 320 319 319 318 317 320 323 317 313 321 331 325 316 311 306 305 304 302 301 301 301 300 300 301 301 301 301 303 304 305 306 306 306 306 306 306 306 306 306 306 305 305 305 306 306 306 306 306 307 307 307 307 307 307 307 307 307 307 307 306 306 305 305 305 305 304 304 304 304 304 304 304 305 305 306 306 307 307 308 308 309 309 309 309 310 310 309 309 308 307 306 306 305
323 323 320 318 317 317 318 318 318 323 325 315 311 320 327 324 318 310 307 307 305 303 301 300 300 300 300 300 299 300 300 302 304 305 305 305 305 306 306 306 306 305 305 305 305 305 305 305 305 305 305 305 306 306 306 306 306 306 306 306 306 306 306 306 305 305 304 304 304 304 304 304 303 304 303 303 303 303 303 303 303 304 304 305 305 306 307 307 307 308 308 308 308 308 307 307 306
326 320 319 321 318 318 319 319 319 321 320 317 317 320 319 321 319 310 307 309 305 304 303 301 300 299 299 299 299 299 300 302 303 304 304 305 305 305 305 305 305 305 305 304 304 304 304 304 305 305 305 305 305 305 305 305 305 305 305 305 305 305 305 304 304 304 303 303 303 303 303 303 303 303 303 303 303 303 302 302 302 302 302 302 303 303 303 304 304 305 305 306 306 306 307 306 306
324 317 317 321 320 321 322 322 321 317 316 320 320 316 316 322 319 308 307 311 309 305 304 302 300 299 298 298 298 298 300 301 303 303 304 304 304 304 304 304 304 304 304 304 304 303 304 304 304 304 305 305 305 305 304 304 304 304 304 304 304 303 303 303 303 302 302 302 302 302 302 302 302 302 302 302 302 302 302 302 302 302 302 302 301 302 302 302 302 302 303 303 304 304 305 305 305
315 312 316 319 319 320 322 322 322 319 318 320 320 316 317 321 318 310 309 313 312 306 303 302 300 299 298 298 298 298 299 301 302 303 303 303 303 303 303 303 304 304 303 303 303 303 303 303 304 304 304 303 303 303 303 303 303 303 303 302 302 301 301 301 301 301 301 301 301 301 301 301 301 301 301 301 301 301 301 302 302 302 301 301 301 301 301 301 301 301 301 301 301 302 302 303 303
308 314 322 324 322 321 321 320 319 320 320 319 320 318 316 319 320 315 310 310 311 307 304 302 300 299 298 297 297 298 298 300 301 302 302 302 302 302 303 303 303 303 302 302 302 302 302 302 303 303 303 302 302 302 302 302 301 301 301 300 300 299 299 299 299 299 299 299 299 299 299 299 299 299 299 299 299 299 299 300 300 300 301 301 301 300 300 300 300 300 300 300 300 300 300 301 301
311 322 325 324 324 321 322 322 319 322 322 317 317 315 312 317 320 315 310 306 306 306 305 303 301 299 298 297 297 297 298 299 300 301 301 301 302 302 302 303 302 302 302 302 302 301 302 301 302 302 302 302 301 301 301 300 300 300 299 299 298 298 298 297 297 297 297 297 297 296 296 297 297 296 296 296 296 296 296 297 297 298 298 299 299 299 299 300 300 300 300 300 300 299 299 299 299
318 322 322 323 323 321 323 323 319 321 320 313 313 313 312 316 316 312 311 306 302 304 303 302 300 299 298 297 297 297 298 299 300 301 301 301 302 302 302 302 302 302 302 301 301 301 301 300 300 301 301 300 299 299 299 299 298 298 297 297 297 296 296 296 296 295 294 294 294 294 294 294 294 294 294 294 294 293 293 294 294 294 295 295 295 296 296 297 297 298 299 299 299 299 299 299 299
317 320 322 324 324 322 326 323 316 317 317 311 309 312 315 318 315 308 306 303 299 301 302 301 300 299 298 297 297 297 298 299 300 300 301 301 301 301 301 301 301 301 301 301 300 300 300 300 299 300 299 298 297 297 297 297 296 296 295 295 295 295 295 294 294 293 293 292 292 292 291 291 291 291 291 291 291 291 291 291 291 292 292 292 292 292 292 293 293 294 294 295 296 297 297 298 298
314 318 319 321 324 325 325 324 318 317 319 313 308 313 320 321 312 303 300 299 298 301 302 301 300 299 298 297 297 297 298 299 300 300 301 301 301 300 300 300 300 300 300 300 300 299 299 299 298 298 297 296 296 295 295 295 294 293 293 293 293 293 293 292 292 292 291 291 291 290 290 290 290 290 290 290 290 290 290 290 290 290 290 290 290 290 290 290 290 290 291 291 291 292 293 294 295
313 313 316 318 321 321 318 319 316 314 317 316 312 316 319 315 306 300 299 299 298 299 299 300 299 298 297 297 297 297 298 299 300 300 300 300 300 300 300 300 299 299 299 299 299 298 298 298 297 296 296 295 294 293 293 293 292 292 292 292 291 291 291 291 291 291 290 290 290 290 290 290 290 289 290 290 290 290 290 290 290 290 289 289 289 289 289 289 289 289 289 289 289 289 290 290 290
314 312 318 317 314 316 318 316 312 311 315 316 315 317 315 311 306 302 300 300 299 298 298 298 298 297 297 297 297 297 298 299 300 300 300 299 299 299 299 299 299 298 298 298 297 297 296 296 295 295 294 293 293 292 292 292 291 291 291 291 291 290 290 290 290 290 290 290 289 289 289 289 289 290 290 290 290 290 290 290 290 289 289 289 289 289 289 289 289 289 289 289 289 289 289 289 289
317 317 317 313 311 316 319 318 317 316 317 316 316 317 316 315 312 304 301 302 301 299 298 297 297 297 296 296 297 298 298 299 299 299 299 299 299 298 298 298 297 297 297 296 296 295 294 294 294 293 293 292 292 292 291 291 291 291 290 290 290 290 290 290 290 290 290 290 289 290 290 290 290 290 289 289 289 289 289 289 289 289 289 289 289 289 289 289 289 289 289 289 288 289 289 289 288
314 315 312 311 316 319 317 317 319 318 317 318 320 318 314 316 315 311 308 304 302 301 299 297 297 296 296 297 297 297 298 299 299 299 298 298 298 298 297 297 296 296 295 295 294 294 293 293 293 292 292 291 291 291 290 290 290 290 290 290 290 290 290 290 290 290 290 290 290 290 290 290 289 289 289 289 289 289 289 289 289 289 289 289 289 289 288 288 288 288 288 288 288 288 288 288 288
308 310 310 312 317 318 317 316 317 319 317 318 321 318 316 317 316 317 315 306 301 301 300 299 297 296 297 298 298 298 299 299 299 298 298 298 298 298 297 296 296 296 295 295 294 293 292 291 291 291 291 291 290 290 290 290 290 290 290 290 290 290 290 290 290 290 290 290 290 290 290 290 289 289 289 289 289 289 289 289 289 289 288 288 288 288 288 288 288 288 287 287 288 288 288 288 288
312 314 314 314 314 315 316 314 314 319 319 320 320 316 318 318 311 313 314 305 300 301 300 299 297 297 299 299 299 300 300 299 299 299 298 298 298 298 297 296 296 296 295 293 292 291 290 290 290 290 290 290 290 291 291 291 291 291 290 290 290 290 290 290 289 289 289 289 289 289 289 289 289 289 289 289 289 289 288 288 288 288 288 288 288 287 287 287 287 287 287 287 287 287 287 287 287
318 318 317 316 315 315 316 314 313 315 316 319 319 315 318 315 306 307 309 303 300 300 299 299 297 299 300 300 301 300 300 300 299 299 298 298 297 297 297 296 294 293 292 291 290 290 290 290 290 291 291 291 291 291 291 291 291 290 290 290 290 290 290 290 289 289 289 289 289 289 289 289 288 288 288 288 288 288 288 288 288 288 287 287 287 287 287 287 287 287 286 286 286 286 286 286 286
Wind_Speed
8 7 8 7 6 5 4 3 0 2 4 2 2 1 2 3 1 1 3 3 2 3 4 3 2 2 1 1 3 4 4 4 3 2 1 3 1 2 1 1 3 2 3 9 12 15 17 18 17 16 15 15 15 16 16 15 15 14 14 13 13 13 13 14 13 11 10 10 9 9 8 7 7 6 6 6 6 6 5 5 5 6 6 7 7 5 5 5 5 4 3 3 2 2 2 2 2
7 6 7 5 4 3 3 2 2 3 5 2 2 2 3 3 1 3 5 4 2 2 2 2 2 3 3 3 4 4 4 6 5 5 4 4 3 2 1 1 4 4 4 7 10 13 16 17 17 16 15 14 14 14 14 14 14 13 13 13 13 14 14 14 12 10 9 9 8 8 7 6 6 6 6 6 6 6 6 6 7 7 7 7 8 6 4 4 4 3 2 2 1 1 1 1 2
6 5 6 3 2 1 1 3 2 1 5 2 3 4 2 1 4 6 8 6 3 2 2 2 1 2 1 2 2 1 3 5 5 7 6 5 4 4 3 3 4 6 5 6 9 11 14 16 17 17 16 15 14 14 14 14 13 12 13 13 13 14 15 14 12 11 9 9 8 8 7 6 6 6 6 7 7 7 7 7 8 8 8 8 8 7 5 4 4 2 1 1 1 2 2 2 3
6 4 4 2 0 2 3 4 2 4 3 2 2 4 2 3 7 7 6 6 4 3 3 4 2 2 2 2 2 3 5 5 3 4 4 4 5 5 5 4 5 6 6 6 7 10 12 14 16 17 16 16 15 15 14 14 13 12 13 13 14 15 16 15 13 12 11 10 9 8 7 6 6 6 6 6 7 7 8 8 8 8 8 8 7 7 7 6 4 2 2 2 3 4 5 5 5
6 5 5 3 0 1 3 3 2 4 3 4 0 5 5 5 7 6 5 5 5 3 3 4 2 2 4 5 3 2 3 3 2 4 4 4 5 5 4 3 4 6 6 6 6 8 10 13 15 16 17 16 16 15 14 15 14 13 13 14 14 15 16 15 14 13 12 11 10 9 7 5 5 6 6 6 6 7 8 8 9 9 8 8 7 7 7 7 5 4 5 6 7 8 8 9 9
5 5 5 4 4 2 3 3 2 0 4 5 2 6 6 6 6 4 4 2 3 3 4 4 2 3 4 5 4 4 4 3 3 4 4 5 4 4 3 3 3 5 6 7 6 6 8 11 13 15 16 16 17 16 15 15 15 14 14 15 15 16 17 16 15 14 13 12 11 9 7 5 6 7 8 8 7 7 8 9 9 10 9 8 9 9 7 6 7 8 10 11 10 10 11 11 11
4 4 4 4 4 3 3 3 3 2 3 5 3 5 6 6 6 3 3 1 1 3 5 4 2 3 3 4 5 5 5 6 6 5 5 5 3 3 3 2 2 4 6 7 7 6 6 10 12 14 16 17 17 16 16 16 16 15 15 16 16 17 17 17 16 15 14 12 11 10 8 7 7 9 9 9 9 9 9 9 9 10 9 9 9 9 8 9 12 14 15 14 12 13 13 13 13
3 3 4 4 3 4 4 2 3 2 1 3 4 6 7 6 5 2 1 1 1 3 4 5 2 1 3 3 5 5 6 8 9 8 7 6 2 2 3 2 1 2 5 7 8 7 7 8 11 13 15 16 17 16 16 16 17 16 16 17 17 18 18 18 17 16 14 13 12 10 9 8 9 10 11 10 11 11 10 9 9 9 9 9 10 10 11 12 15 16 17 16 13 13 14 14 14
4 4 3 4 2 3 3 1 2 3 3 4 5 8 6 4 5 3 1 0 1 3 5 5 2 1 5 6 8 8 7 8 8 8 7 6 3 1 2 2 2 1 3 6 8 9 8 8 9 12 14 16 17 17 16 17 17 16 16 17 18 18 18 19 18 17 15 13 13 11 10 10 10 11 12 12 12 11 11 10 9 10 10 11 11 12 12 13 16 18 20 18 13 11 13 13 13
4 5 2 3 3 3 3 2 2 2 5 5 6 9 5 3 5 2 0 1 1 3 5 4 5 5 5 8 10 8 6 8 8 7 7 7 4 1 1 2 1 1 1 4 7 9 9 9 9 11 13 15 16 16 17 17 17 16 16 16 18 19 19 19 19 18 16 14 13 12 11 11 12 13 13 14 13 13 12 12 11 11 11 12 12 13 14 15 17 18 20 17 12 10 10 10 11
3 5 3 4 4 2 0 3 4 4 6 6 7 8 4 3 3 1 1 2 2 2 4 3 4 6 5 7 9 9 9 10 9 8 8 7 5 3 2 1 0 1 1 3 6 8 10 10 10 10 12 14 16 16 17 18 18 17 17 16 17 18 19 20 19 18 17 15 14 13 12 12 13 14 14 15 15 15 14 14 13 12 12 12 13 13 15 17 18 17 16 13 11 9 8 8 9
2 3 4 4 3 2 2 2 5 6 7 5 3 3 2 4 2 1 2 3 4 4 6 3 3 4 2 3 8 12 11 9 8 7 9 9 7 7 6 4 2 1 1 3 6 8 9 11 11 11 12 13 15 16 17 18 18 18 17 17 17 18 19 20 20 19 18 16 15 14 13 13 14 15 15 15 16 16 15 15 14 13 13 13 13 14 16 17 17 15 12 11 9 9 8 8 7
2 2 4 3 2 2 3 2 4 5 6 2 2 3 4 5 3 4 3 4 6 3 4 3 4 4 2 6 9 9 8 9 10 7 9 11 11 11 10 8 6 4 3 5 6 8 9 11 12 12 13 13 15 16 17 19 19 19 18 17 17 17 18 19 20 19 18 17 16 15 15 15 15 16 17 16 17 17 16 16 16 15 14 13 14 16 17 16 15 13 10 10 9 8 8 7 6
3 3 4 2 1 1 3 1 2 1 3 3 2 5 7 6 5 7 4 4 7 4 3 3 4 3 4 6 7 5 7 13 14 12 11 12 14 14 12 11 10 9 8 8 7 8 9 10 12 13 14 15 16 16 17 19 20 19 19 18 18 18 18 19 19 19 19 18 17 16 16 16 16 17 18 19 19 18 17 17 17 15 15 14 15 17 17 16 14 12 10 9 8 8 8 7 7
3 3 4 3 2 2 3 2 1 4 3 3 3 9 10 8 7 8 6 4 7 5 3 4 5 4 3 3 8 12 14 18 18 17 15 13 15 15 15 14 14 13 12 11 9 9 10 10 12 13 15 16 17 18 18 19 20 20 20 19 19 19 19 19 19 20 19 19 18 17 17 17 17 18 20 21 21 19 18 18 17 15 15 16 17 17 17 16 13 11 10 9 8 8 9 8 8
3 3 4 2 0 2 3 2 1 3 4 4 3 11 9 8 7 7 8 7 9 9 7 7 7 8 10 11 16 19 19 20 19 18 15 11 13 16 17 17 16 16 15 14 11 10 11 12 13 14 16 17 18 19 19 19 20 20 20 20 20 20 20 19 19 20 20 19 19 18 18 18 19 19 19 21 22 21 19 18 17 16 17 17 17 17 17 16 13 11 10 10 8 9 10 9 9
2 2 4 1 2 2 3 4 3 3 5 5 5 9 4 7 9 8 10 10 13 14 14 12 11 13 17 18 20 21 21 22 20 17 13 11 12 14 18 19 19 19 18 17 14 12 12 13 14 15 16 17 19 19 20 20 20 21 21 21 21 21 21 20 20 20 20 20 20 19 19 19 19 19 19 20 21 21 20 19 18 17 17 18 17 17 17 16 12 10 10 10 9 10 11 10 10
2 2 3 1 3 4 5 7 5 3 3 5 7 8 3 6 10 11 10 10 14 16 20 19 15 16 15 15 16 18 19 19 18 17 15 14 14 14 16 18 20 21 20 20 18 16 15 14 15 16 17 18 19 20 21 21 21 21 22 22 22 22 22 22 22 22 21 21 20 20 20 20 20 19 19 20 20 20 19 18 17 17 17 17 16 17 17 15 12 10 11 11 11 11 11 11 10
2 3 2 3 5 5 5 7 6 4 5 8 11 10 5 7 11 12 8 8 11 14 22 22 18 18 16 16 16 16 16 16 17 16 16 17 17 16 16 17 19 21 21 20 19 19 18 16 16 17 18 19 20 21 21 21 22 22 22 23 23 22 22 22 23 23 22 22 21 21 21 21 20 20 20 20 20 19 18 17 16 16 17 17 16 16 17 15 12 11 11 11 12 12 12 11 11
1 3 1 6 6 5 6 7 8 9 9 9 11 9 6 10 12 10 7 9 9 9 17 18 19 24 23 22 21 19 18 17 16 16 17 18 18 18 18 18 19 20 20 21 20 20 20 18 17 17 18 19 21 21 22 22 22 22 22 23 24 23 23 23 23 24 24 23 22 22 22 22 21 21 21 21 21 21 20 18 17 16 16 16 16 15 16 15 13 12 12 12 13 13 13 12 12
2 4 4 5 3 2 8 9 11 12 9 8 10 9 10 13 11 9 9 10 7 10 17 17 22 29 28 25 22 20 19 17 16 16 17 18 19 20 20 21 21 22 22 22 21 20 21 20 19 18 18 19 21 22 22 22 23 23 23 23 24 24 24 24 24 24 25 24 24 23 23 22 21 21 22 22 22 22 20 19 18 17 16 16 16 15 16 16 14 13 12 13 14 13 13 13 13
3 5 7 5 3 3 10 11 12 13 9 9 11 9 9 10 9 12 11 7 10 19 25 25 27 30 28 25 21 19 17 15 14 13 14 16 17 19 20 22 22 24 25 24 23 23 22 21 20 18 18 19 19 21 22 22 23 23 23 23 25 25 26 25 25 25 25 25 25 24 23 23 22 22 22 23 23 23 22 21 19 18 17 16 16 15 16 16 15 13 12 13 15 14 14 14 14
4 4 6 8 7 6 13 15 14 15 13 12 11 9 11 9 11 17 15 17 24 30 30 29 27 23 22 20 17 15 13 12 12 11 13 14 15 16 17 18 19 20 22 22 22 24 24 22 21 19 18 18 18 19 20 21 23 23 23 24 24 25 26 27 26 26 25 26 26 25 24 24 23 23 23 24 24 24 22 21 20 20 19 17 17 16 16 17 16 15 13 14 16 16 15 15 15
5 4 5 7 9 8 13 15 15 17 16 18 16 13 14 11 10 13 20 31 32 29 27 24 18 15 17 16 13 11 10 10 10 11 12 13 15 16 16 16 17 18 19 20 20 22 22 22 21 19 18 17 17 17 18 19 20 22 23 23 24 24 26 27 28 27 26 25 25 25 24 24 24 24 24 25 26 24 23 23 23 22 21 19 18 17 16 17 17 16 15 15 17 17 17 16 16
5 5 5 5 8 11 14 16 19 21 20 21 17 14 18 17 11 10 25 33 24 17 18 15 13 14 15 13 10 9 8 9 9 10 11 13 15 16 17 18 19 20 20 20 20 19 19 20 19 18 17 16 16 16 16 17 17 19 21 22 22 22 23 25 26 26 26 26 25 24 25 25 24 24 25 25 25 24 24 25 25 24 23 21 20 19 18 17 17 16 16 17 19 19 18 17 17
5 5 5 6 11 14 16 19 22 21 17 15 11 13 19 16 8 10 20 18 9 9 11 12 14 15 13 10 10 9 9 9 10 11 11 13 15 16 17 18 20 20 19 17 17 18 17 17 16 16 15 14 15 15 15 15 15 16 17 19 19 20 21 21 23 25 25 25 24 23 26 27 24 24 25 24 25 25 27 28 27 25 24 23 21 20 19 18 18 17 16 17 19 20 19 18 18
3 3 6 9 13 16 16 18 24 21 14 12 9 12 16 9 1 7 14 8 7 11 11 13 14 12 8 7 7 8 9 10 11 11 11 13 13 14 14 14 16 17 16 14 14 16 16 15 13 13 12 11 12 12 12 13 14 15 16 17 17 17 17 18 21 24 24 25 24 22 25 27 24 23 22 22 23 24 26 27 27 25 24 24 23 22 21 20 19 18 17 17 19 21 21 20 20
4 6 8 11 11 16 18 16 21 16 8 7 8 9 11 2 3 10 16 11 12 13 12 12 10 7 5 4 4 5 7 9 9 10 10 10 10 10 11 11 13 14 14 12 12 13 13 12 11 11 10 9 8 8 9 11 11 13 14 15 15 15 15 16 18 20 21 22 23 22 23 25 23 21 21 22 22 22 23 22 22 23 23 23 23 23 22 21 20 19 19 18 19 22 23 22 21
5 4 5 10 8 11 16 11 8 4 2 4 4 4 8 2 7 14 14 11 12 13 11 10 7 4 2 2 2 3 4 5 6 8 7 7 7 8 9 10 11 12 12 11 10 10 10 10 11 11 10 8 6 6 8 9 10 11 12 13 13 14 14 14 14 15 16 17 19 19 20 21 20 21 22 22 21 21 21 20 20 20 20 20 21 21 21 21 20 19 19 19 20 22 24 24 23
6 3 1 6 7 7 9 2 1 1 3 5 5 2 8 6 11 12 10 9 12 14 10 8 5 2 2 3 2 2 1 3 3 4 5 6 6 6 7 7 8 9 9 9 8 7 7 8 11 12 11 10 8 7 8 9 9 9 10 11 12 13 13 14 14 14 14 15 16 17 18 18 18 19 19 19 19 19 19 18 18 18 17 18 19 20 20 20 20 20 19 20 20 22 24 25 25
3 2 1 3 2 5 7 1 1 2 3 6 7 2 6 8 12 11 9 12 16 14 7 5 3 4 4 4 4 3 3 3 3 4 4 5 6 6 5 5 5 5 6 6 5 3 4 7 9 11 11 10 9 7 7 8 9 9 9 10 10 11 11 12 13 14 14 14 15 15 16 16 16 17 17 17 17 17 17 16 16 16 16 17 18 19 20 20 21 21 20 20 20 22 24 25 26
2 1 3 3 2 5 10 6 3 2 1 4 6 2 5 9 12 11 11 16 20 12 5 6 5 6 6 6 6 5 6 6 5 5 5 5 6 6 6 5 4 3 4 4 3 2 2 4 6 8 9 9 9 8 7 8 9 9 9 9 9 8 8 9 10 11 12 13 13 13 13 14 14 15 15 15 15 15 15 15 15 16 16 16 17 19 20 20 21 21 21 21 21 20 21 23 26
3 1 4 3 3 3 7 5 0 1 1 1 2 1 5 6 12 16 15 17 15 7 8 8 8 8 9 8 8 8 8 8 7 7 7 7 7 7 7 6 6 6 5 4 4 3 1 1 3 5 7 7 7 7 6 7 7 7 7 7 7 7 7 7 8 9 10 10 11 12 12 12 12 13 13 13 13 14 14 14 14 15 15 16 17 18 19 20 21 22 22 22 22 21 20 21 23
3 0 3 4 4 3 3 4 4 4 3 1 1 1 6 9 15 19 16 14 9 9 10 10 11 10 11 11 10 10 10 10 10 10 10 9 8 8 7 7 7 7 6 5 5 4 3 2 1 1 3 4 4 4 4 4 4 4 4 5 5 5 5 5 6 6 7 8 9 10 11 12 12 12 12 12 13 13 14 14 14 14 15 16 17 18 19 19 20 21 22 22 22 22 21 21 21
4 3 3 3 3 4 5 4 4 5 4 3 2 2 8 12 12 12 14 12 7 11 13 13 13 12 13 13 13 13 13 13 13 11 10 9 8 8 8 8 7 7 7 7 6 5 5 5 4 2 2 1 2 3 2 2 2 3 3 3 3 3 3 4 4 4 4 5 6 7 8 8 9 10 11 12 13 13 14 14 14 15 15 16 17 18 19 19 20 20 21 21 21 22 22 22 22
6 5 4 4 4 6 6 5 5 2 3 5 4 5 9 11 8 9 13 9 10 14 14 15 14 15 15 16 16 16 15 15 13 11 10 9 9 9 8 8 8 7 8 7 6 5 5 6 4 4 5 4 2 2 2 2 2 2 2 2 3 2 2 3 3 3 3 4 4 5 6 6 6 7 8 9 10 11 12 13 14 14 15 16 17 17 18 19 19 20 20 21 21 22 22 23 23
4 3 2 4 5 7 5 5 5 1 1 6 4 5 8 9 5 8 10 9 13 12 14 15 15 16 17 17 18 17 17 16 13 11 11 10 10 10 10 11 13 14 15 15 14 13 12 10 8 8 8 5 3 2 1 1 2 2 2 3 3 2 2 2 3 3 3 4 4 5 6 7 7 8 9 9 8 9 9 10 11 12 13 14 15 16 17 17 18 19 20 21 21 22 22 23 23
1 1 2 5 5 7 7 4 4 1 3 4 1 1 8 7 3 7 8 9 10 9 12 13 14 16 17 17 18 18 18 15 14 14 14 14 15 16 19 22 24 26 27 26 25 24 22 20 19 17 14 11 10 8 5 3 2 1 1 2 2 2 2 3 4 4 5 6 6 7 7 8 8 9 11 12 12 11 11 10 11 11 11 12 13 13 14 15 16 18 19 20 21 22 23 23 24
2 2 2 4 4 5 7 4 3 2 3 4 2 2 8 5 5 8 10 10 9 10 12 11 13 16 16 17 19 19 19 19 20 21 22 22 23 25 27 29 30 30 30 30 29 29 28 27 26 24 22 20 19 17 14 12 10 7 5 4 2 0 0 1 2 3 4 5 6 7 9 10 11 12 13 14 16 16 16 16 15 15 14 14 14 13 13 13 14 15 16 18 20 22 22 23 23
3 4 2 4 3 1 4 4 4 2 1 2 1 3 6 2 4 7 10 11 13 15 14 13 14 15 16 17 19 20 21 22 24 26 27 27 27 28 29 30 29 29 30 30 29 29 29 28 27 26 25 24 23 21 20 18 16 14 12 11 9 7 6 4 2 1 2 3 4 5 6 8 10 12 13 15 16 17 18 19 19 19 18 18 18 18 16 15 15 14 14 15 17 20 21 22 22
3 5 5 5 4 5 6 4 4 2 2 1 1 3 5 2 1 2 6 9 12 12 13 14 13 14 15 17 20 21 21 23 26 27 28 27 28 28 29 29 28 28 29 29 28 28 27 27 26 26 25 25 24 22 21 19 17 17 16 15 14 12 11 9 7 6 5 3 3 2 3 3 5 7 8 10 11 13 15 16 17 18 19 19 19 20 20 19 18 17 16 15 16 17 19 20 21
4 5 10 10 9 7 5 3 5 3 3 3 3 3 5 3 1 4 3 5 6 7 10 11 11 12 15 17 19 19 20 24 26 28 27 27 27 27 27 27 27 27 28 27 26 25 24 24 24 23 23 23 23 22 20 18 18 18 17 18 17 15 15 14 14 13 11 9 7 6 4 3 3 4 4 5 7 8 10 12 13 15 16 17 17 18 19 20 20 19 18 18 17 17 18 20 21
3 4 8 9 7 5 4 1 2 0 3 3 3 1 5 5 1 5 5 4 4 4 7 7 9 11 13 15 16 17 20 23 26 27 26 26 26 25 26 25 25 25 25 23 22 22 22 21 21 21 21 21 20 20 18 16 17 17 16 17 17 16 17 17 16 14 13 12 10 8 7 7 7 7 7 7 6 6 6 8 9 11 12 13 14 15 16 17 18 20 20 20 20 20 20 21 21
2 4 4 5 5 5 4 4 3 2 3 4 3 2 4 6 3 3 6 6 4 3 4 4 7 10 11 13 14 16 19 22 25 25 25 25 24 24 24 23 23 23 21 19 19 19 19 18 18 18 18 19 18 17 15 15 15 16 15 16 16 17 17 17 15 13 13 12 10 10 10 9 9 9 9 9 9 8 7 7 7 8 9 10 12 12 13 15 16 17 19 20 21 22 22 23 23
5 3 6 6 6 5 4 5 2 1 2 5 3 1 3 6 3 1 4 4 2 4 3 3 6 9 10 12 13 16 19 22 23 24 24 23 22 22 22 21 21 19 18 17 17 17 16 16 16 15 16 17 16 15 14 14 14 15 14 14 15 16 16 14 12 11 11 11 10 10 10 9 9 9 10 10 10 9 9 8 7 7 8 8 10 11 12 13 14 15 16 18 19 20 22 23 24
3 5 6 5 5 5 4 4 3 2 2 4 5 4 2 5 3 2 2 3 4 5 3 4 8 9 10 12 13 16 18 21 22 22 22 21 20 20 19 18 17 16 16 15 15 15 14 14 13 12 15 15 15 14 13 14 14 13 14 14 15 15 14 12 11 11 11 10 10 10 10 9 9 9 10 10 10 10 9 9 8 8 8 8 8 9 10 11 13 14 15 16 17 18 19 21 23
5 6 5 5 5 5 4 2 4 2 4 4 7 8 6 4 4 3 4 2 4 7 5 5 9 11 11 12 14 16 18 20 21 21 20 19 18 18 16 15 15 14 14 12 12 12 11 11 10 11 13 13 12 12 11 12 12 12 13 13 14 14 12 10 10 11 12 10 10 11 10 9 9 10 10 10 10 10 10 9 9 8 8 7 7 8 9 10 11 11 12 13 15 16 18 19 21
5 4 4 3 4 4 4 4 4 0 5 3 3 4 5 5 5 2 2 2 2 7 8 9 11 14 14 13 14 16 18 19 20 19 18 17 16 15 14 13 13 12 10 9 9 9 9 9 8 8 11 10 10 10 9 9 10 11 12 11 12 12 11 10 11 12 12 11 11 10 9 8 8 9 9 10 10 12 12 11 10 10 9 9 9 9 9 10 10 11 11 11 12 13 15 17 19
5 4 5 3 3 3 3 3 0 3 6 3 1 1 2 6 5 1 3 3 3 5 11 16 18 19 18 17 16 17 18 19 18 17 16 15 14 13 11 11 11 9 7 7 8 8 7 8 7 6 8 9 9 8 8 8 9 10 11 11 11 11 11 11 11 12 12 12 12 11 10 10 10 10 10 11 12 13 13 13 13 13 13 13 12 12 12 12 12 12 12 12 12 12 13 14 16
4 4 4 3 1 1 3 4 2 4 6 3 1 2 1 5 2 1 4 5 6 6 13 22 24 24 22 20 18 18 18 18 17 16 15 13 12 11 10 9 8 7 7 6 6 6 6 6 6 6 8 9 8 8 8 8 9 10 10 9 10 10 10 10 10 11 12 12 12 13 13 13 14 14 14 14 14 13 13 14 14 14 14 14 14 14 14 14 14 14 14 14 14 14 14 14 14
4 4 5 4 4 4 4 4 3 4 4 3 2 1 3 3 1 2 4 4 3 4 14 20 22 23 22 20 19 18 18 18 17 15 14 12 11 10 9 8 6 6 6 5 5 5 4 5 5 5 7 8 7 7 8 8 9 10 9 9 9 9 9 9 9 10 10 11 11 12 12 13 14 14 14 15 14 14 14 14 14 14 14 14 15 15 15 15 15 16 16 16 16 16 16 15 16
2 3 4 2 4 5 3 3 5 2 3 3 2 3 4 4 1 3 1 3 5 8 15 19 20 20 20 19 19 19 19 18 17 15 13 11 10 9 7 7 6 5 5 5 5 5 4 5 5 5 6 6 6 6 7 8 9 9 9 9 9 9 9 9 9 9 10 11 11 12 13 13 14 14 14 15 15 15 15 15 15 15 16 16 16 17 17 17 17 18 18 18 18 18 18 17 17
1 2 3 4 4 6 2 2 1 3 2 4 2 2 4 1 0 3 3 3 4 6 10 16 19 19 19 20 20 20 19 18 16 15 13 11 9 8 7 6 6 5 5 5 5 6 5 6 6 6 6 6 5 5 5 6 6 6 7 7 8 8 8 9 9 10 11 11 12 13 13 14 15 16 16 17 17 17 17 18 17 17 18 18 18 19 19 20 20 20 20 20 21 21 21 20 20
4 2 5 3 2 4 3 1 3 2 3 4 0 3 3 2 2 2 2 2 3 3 6 11 15 17 19 21 21 20 19 18 17 15 14 11 9 8 8 7 7 7 7 7 7 7 7 7 6 6 6 5 4 4 4 4 4 5 6 7 8 9 10 11 11 11 12 12 13 14 14 15 16 17 17 18 18 19 19 20 20 20 20 20 21 21 21 22 22 22 22 22 22 23 24 23 23
4 3 2 3 2 1 2 2 2 2 4 4 3 3 3 4 4 2 4 8 8 6 6 8 12 17 20 21 21 20 19 19 17 16 14 12 10 8 9 9 8 9 8 8 8 7 7 7 7 7 6 5 4 3 3 4 5 6 7 8 9 10 10 11 12 12 13 14 15 16 16 17 17 18 19 19 20 20 20 21 21 22 22 22 22 22 23 23 24 24 24 24 24 25 26 26 25
2 1 1 1 2 4 2 2 3 3 4 4 5 5 4 5 5 6 9 11 10 10 8 9 14 20 23 23 22 21 21 20 18 16 15 13 11 10 10 10 10 10 10 9 9 9 9 8 8 7 6 5 3 3 3 4 5 6 7 8 9 10 11 12 13 13 15 15 16 17 18 19 19 20 21 21 21 22 23 23 23 24 24 24 24 24 24 25 25 26 26 26 27 27 28 29 28
2 2 2 2 1 1 1 1 2 3 3 2 3 6 6 4 3 6 8 8 11 14 13 12 18 24 26 25 25 23 22 20 18 17 15 15 13 11 11 12 12 12 12 11 11 11 10 8 7 6 4 3 2 1 2 4 6 7 9 10 11 12 13 14 14 15 16 17 17 18 19 20 20 21 22 22 23 23 24 25 26 26 26 27 27 27 27 28 28 29 29 29 29 30 30 31 31
5 5 5 4 3 2 2 4 1 2 2 4 4 6 7 4 2 3 5 6 12 18 16 14 20 27 27 26 25 23 21 20 19 17 16 16 14 12 12 13 13 14 14 14 13 11 9 8 6 5 3 1 1 3 5 7 9 10 11 12 14 15 17 18 19 20 21 21 21 21 21 21 21 21 22 23 24 24 25 26 27 27 28 28 29 30 30 31 32 33 33 33 33 34 34 34 34
Wind_Direction
312 313 313 314 315 304 292 302 270 354 65 81 316 357 244 228 210 247 279 285 295 264 236 268 274 205 222 270 247 263 249 200 187 132 233 263 352 336 335 166 181 164 178 189 195 192 188 188 193 197 202 206 209 212 215 216 217 220 222 222 219 216 208 199 192 189 188 183 181 180 183 187 191 196 197 201 199 198 187 175 174 163 157 168 170 173 193 184 168 157 142 127 122 113 125 133 131
323 319 320 317 325 307 255 6 86 345 48 73 289 185 261 300 297 225 221 223 226 270 276 258 264 253 257 281 276 299 275 241 246 243 264 286 286 299 331 255 191 176 178 186 197 199 194 192 193 195 199 203 208 211 213 216 218 219 220 220 217 214 207 201 197 194 189 184 186 186 191 197 202 209 209 211 210 206 191 181 175 163 165 180 187 187 192 186 175 163 151 137 146 158 207 222 209
341 328 330 323 338 20 201 36 85 55 71 96 278 245 291 337 233 233 222 229 273 300 292 281 272 265 265 330 283 241 264 261 269 253 262 278 269 297 307 268 206 191 186 187 199 202 201 197 195 195 197 200 204 209 212 215 218 217 216 217 216 213 208 203 200 197 191 190 194 196 203 212 222 224 218 216 212 205 193 187 176 168 173 184 199 204 207 191 178 181 173 186 229 239 251 248 238
355 352 354 340 319 36 61 45 115 111 108 181 282 274 265 204 232 243 242 264 288 278 300 323 321 272 264 314 281 247 269 272 276 241 249 279 289 307 302 275 226 208 196 193 199 202 205 202 200 198 198 200 203 208 210 215 219 216 214 216 216 214 210 207 204 200 197 198 202 205 213 226 231 222 215 213 208 201 193 190 181 177 182 189 201 208 212 196 187 221 242 273 279 274 270 262 251
6 19 12 356 57 48 76 71 100 98 170 184 119 278 253 213 231 255 276 295 262 246 309 313 319 310 280 278 258 247 278 276 259 234 257 293 309 319 313 287 236 220 210 203 202 204 205 204 205 203 202 202 204 209 210 215 220 216 214 217 218 217 214 211 210 206 203 206 210 213 219 230 220 208 210 211 207 198 192 191 187 189 191 192 199 209 211 202 210 250 268 280 281 279 276 270 263
18 26 14 32 76 82 91 86 106 299 224 174 159 263 256 224 224 267 301 314 223 238 294 286 301 317 296 289 261 247 273 289 274 252 274 298 318 336 337 312 251 230 221 212 209 208 206 206 207 207 207 206 206 210 211 215 221 219 215 218 220 221 219 215 216 213 213 215 217 220 224 223 208 207 211 211 210 201 194 190 192 198 199 199 209 220 221 220 240 262 272 275 277 280 277 271 267
6 3 5 55 64 43 89 116 183 244 238 173 184 251 261 245 230 290 316 67 193 263 279 272 295 319 298 311 289 271 274 275 278 275 283 297 322 350 356 341 278 244 230 222 218 214 211 211 210 210 210 210 211 212 213 216 221 222 218 219 221 224 223 219 219 219 221 223 225 228 228 221 211 212 213 212 213 209 202 195 199 206 209 217 227 240 251 258 263 270 276 278 278 280 276 269 265
16 4 21 74 45 27 87 109 225 220 242 209 234 254 266 274 251 273 281 137 320 291 289 276 292 345 277 301 297 291 292 286 286 274 274 283 300 8 5 8 331 273 246 234 224 221 220 216 213 213 213 214 216 216 216 217 222 224 221 221 222 225 226 223 223 222 224 225 228 232 230 225 216 216 217 215 216 214 208 204 210 219 228 240 249 258 267 276 279 283 287 288 285 280 273 268 265
16 13 37 72 66 32 49 354 286 240 259 269 277 266 270 285 250 247 280 312 320 303 306 278 250 281 289 300 294 292 297 302 298 273 261 262 264 21 30 41 29 327 278 253 234 228 228 226 219 216 216 217 219 219 218 220 224 226 224 223 224 226 227 226 225 226 226 225 228 230 230 229 221 218 221 220 220 216 209 209 220 230 239 250 259 267 276 282 285 289 292 295 298 286 271 268 266
8 28 74 73 71 36 4 295 304 272 260 272 281 272 274 269 244 229 41 344 303 311 325 289 244 248 284 301 297 303 304 314 315 277 252 248 254 274 85 82 75 47 321 274 250 238 233 235 229 220 220 220 223 223 221 223 226 227 226 225 225 227 228 228 228 228 228 228 229 228 227 228 225 219 220 223 222 221 218 217 224 234 242 252 263 273 282 286 288 291 292 300 308 295 276 270 267
358 31 81 76 67 52 293 242 285 284 277 300 290 266 266 272 255 247 34 327 264 270 313 300 254 248 268 289 292 309 308 313 316 280 253 249 251 250 238 196 99 70 2 288 260 247 240 239 237 230 224 223 226 227 225 226 228 228 228 226 226 228 228 231 232 231 231 230 231 230 227 225 224 220 221 225 225 227 228 225 227 237 245 255 266 279 289 293 295 294 295 302 306 300 288 274 266
347 14 64 85 118 187 200 226 278 285 302 324 294 266 286 276 258 280 284 303 277 269 284 265 263 272 270 275 294 319 326 329 326 289 260 253 254 257 258 257 265 289 316 289 261 249 245 242 241 238 231 228 229 229 228 229 231 231 231 229 227 228 228 231 234 235 234 233 232 230 230 226 221 220 223 226 226 230 232 230 234 245 253 261 273 287 295 297 297 296 299 300 297 300 291 273 265
52 121 77 94 165 173 174 212 265 294 323 309 249 315 321 289 301 309 273 283 285 282 295 255 248 271 265 277 296 328 0 356 347 324 281 261 258 262 265 269 272 280 293 293 269 250 245 245 244 243 239 233 232 231 230 231 233 234 234 233 230 230 230 232 234 236 236 235 234 231 228 226 222 221 223 226 230 233 236 238 243 252 260 268 282 292 297 298 297 298 299 294 293 295 282 269 265
82 140 104 111 96 121 172 240 280 228 295 275 289 341 328 299 313 315 291 282 283 267 297 256 228 262 277 281 298 335 350 333 331 326 306 280 269 263 262 271 276 280 288 292 275 250 245 245 245 244 242 237 234 232 230 231 234 236 236 235 234 233 233 233 234 236 237 236 236 234 229 226 223 224 225 228 232 237 243 247 250 256 265 275 287 294 297 298 296 298 296 289 289 284 272 267 267
98 117 97 108 35 338 215 241 56 141 240 268 349 352 335 304 304 308 296 277 282 279 274 234 220 270 287 265 293 306 314 315 318 318 312 296 280 266 261 267 273 279 286 290 279 256 247 244 243 242 242 240 237 234 232 232 234 237 237 237 236 236 236 236 235 236 238 237 237 236 232 227 226 229 231 232 234 241 246 249 254 261 269 278 287 292 295 295 293 294 290 283 281 274 270 268 268
100 97 74 79 50 299 230 206 103 130 249 254 339 350 339 304 301 303 306 287 280 289 276 251 246 269 275 273 288 298 303 306 311 315 314 306 288 272 265 265 268 274 280 285 282 266 254 248 246 242 241 241 240 238 235 234 234 237 238 237 237 238 238 237 236 236 238 238 238 237 234 231 231 234 235 235 235 239 244 249 257 264 273 280 286 290 291 290 288 287 282 277 274 268 269 269 268
93 77 69 44 192 218 214 197 172 163 262 274 326 347 338 297 300 295 306 287 277 285 281 276 271 274 279 284 292 295 298 300 305 310 311 311 301 281 269 267 268 272 277 282 283 273 264 260 256 250 245 243 243 242 239 236 235 236 238 238 237 237 238 239 238 237 237 238 237 237 235 234 235 236 237 237 236 237 242 250 259 268 276 282 287 288 287 286 282 279 276 272 270 268 270 271 269
101 86 100 227 197 202 190 187 192 175 273 281 306 326 293 284 304 306 306 278 278 288 287 289 286 287 293 300 306 303 301 301 302 304 302 304 303 292 280 275 273 275 278 280 282 278 272 270 268 261 255 250 247 246 244 241 237 236 238 239 237 236 237 238 237 237 237 237 236 235 235 235 236 238 237 238 239 239 244 253 263 272 277 281 285 285 283 281 277 273 270 269 269 270 272 271 267
116 97 122 231 203 212 204 193 206 208 275 283 296 309 277 275 304 312 302 278 293 299 298 304 307 315 325 327 326 319 311 305 304 302 297 299 300 297 293 286 283 285 286 287 287 282 277 275 274 269 264 260 254 249 249 247 243 240 239 240 240 238 238 237 236 236 236 236 235 235 234 236 238 240 240 240 243 246 251 258 265 270 274 279 282 282 280 277 274 270 266 267 269 271 273 271 267
156 107 161 246 218 238 257 241 249 260 277 284 297 306 290 298 309 304 296 299 300 283 293 304 313 322 332 333 331 326 322 317 312 306 299 301 301 299 296 292 291 294 296 295 291 284 280 278 277 275 269 264 260 255 252 250 248 245 242 241 242 241 240 239 238 236 236 236 235 236 236 237 239 240 242 241 243 249 255 260 265 270 275 280 282 280 278 275 271 266 264 266 268 271 272 270 268
175 153 190 234 193 241 272 274 286 288 284 270 288 307 306 311 313 298 308 320 300 275 291 301 307 316 324 328 331 329 328 328 323 314 308 307 306 302 297 295 293 294 293 291 290 289 286 281 280 279 274 267 263 260 255 253 252 250 247 243 244 244 243 242 242 240 238 237 236 238 239 241 241 241 243 243 244 249 255 262 267 272 279 282 282 279 276 273 268 264 262 263 266 268 269 269 268
175 213 229 238 188 228 278 289 297 295 292 283 294 308 304 309 301 291 298 290 273 286 298 303 306 312 318 323 328 330 330 332 332 325 316 311 307 302 297 294 292 290 289 287 288 288 285 282 281 279 276 272 267 264 259 256 255 253 252 247 245 245 246 245 244 243 241 239 239 240 241 242 242 242 245 246 247 251 257 262 268 274 280 284 283 280 276 272 267 262 257 257 262 264 264 265 266
210 257 247 250 240 243 278 288 289 288 289 288 292 295 295 299 293 292 282 266 277 291 298 301 307 314 319 325 331 334 339 338 336 330 324 317 311 306 298 292 289 289 288 289 288 284 280 276 273 273 276 276 272 267 262 258 256 256 256 253 249 247 247 248 248 248 245 242 242 243 242 242 242 242 245 249 251 254 259 264 270 275 278 283 284 282 278 273 268 262 254 251 257 260 260 262 263
205 266 260 261 264 262 280 288 288 286 282 282 285 286 284 278 284 295 282 278 287 298 301 303 313 324 328 335 340 345 352 347 342 337 330 322 317 312 304 295 290 290 291 292 290 285 280 275 269 267 272 276 275 269 265 261 259 259 258 257 255 252 249 248 250 251 249 247 245 246 246 244 243 243 244 249 254 257 263 268 272 275 277 280 284 284 280 275 270 264 255 249 254 258 258 260 261
194 239 268 282 287 285 291 292 288 285 282 285 286 275 273 274 274 277 279 285 296 303 306 314 326 333 338 343 346 351 349 344 339 331 324 319 315 310 303 297 292 290 289 289 288 285 281 277 270 265 267 273 274 272 269 267 264 262 262 261 259 257 255 253 252 251 249 248 249 248 250 251 247 246 248 252 258 261 264 267 269 272 276 278 280 283 282 278 272 266 258 250 251 256 257 258 260
206 220 267 287 292 294 296 290 286 286 283 285 282 273 280 285 282 268 275 286 306 301 306 324 333 340 348 342 333 334 334 336 333 327 321 313 306 298 294 292 290 288 286 283 281 280 278 275 270 266 266 268 271 272 272 273 272 270 269 268 265 261 259 258 256 254 251 249 250 244 246 254 253 250 254 257 261 263 264 265 266 270 275 278 279 282 284 281 275 268 259 250 249 254 257 258 259
241 261 277 272 283 291 289 283 284 287 287 278 253 265 282 283 149 261 270 284 301 302 321 333 340 351 353 335 321 325 328 335 336 328 316 305 298 292 287 285 288 288 283 275 270 272 273 269 264 265 266 266 267 269 273 276 279 280 278 276 273 268 263 259 254 254 254 252 255 250 247 258 262 260 265 268 269 270 269 268 267 269 273 278 280 282 285 285 280 273 264 250 244 249 254 254 255
301 318 301 286 298 297 284 277 282 286 292 270 227 254 285 262 157 251 266 288 304 317 345 352 358 2 347 333 328 331 331 336 332 321 319 318 317 314 307 302 302 300 294 282 269 267 267 261 254 255 258 263 265 265 269 273 279 283 284 283 280 278 270 261 251 249 252 252 255 254 250 258 268 274 278 280 280 281 282 281 278 275 276 280 282 282 282 284 282 277 270 256 243 243 248 250 251
308 331 314 301 336 314 283 274 277 265 237 252 192 278 301 223 216 254 276 300 313 333 4 15 19 9 2 26 356 351 339 331 317 318 342 358 352 343 334 327 323 318 312 302 285 270 261 251 246 241 236 240 246 249 257 263 273 279 284 287 287 286 280 274 266 259 259 258 258 256 253 258 267 272 275 278 281 283 286 288 287 285 285 285 285 284 284 284 283 280 276 267 251 243 246 250 251
302 336 347 308 350 319 282 270 79 336 259 224 156 260 288 257 244 265 310 332 337 352 14 22 28 55 70 78 60 52 11 328 325 349 19 27 16 5 355 347 339 329 324 316 299 278 254 239 234 228 219 216 218 226 240 250 260 270 278 285 288 289 288 286 284 279 274 269 266 264 261 264 268 269 272 278 281 284 286 288 291 293 294 292 289 289 289 289 286 285 284 277 263 250 246 249 253
301 322 9 332 331 279 292 359 162 319 297 201 162 209 265 272 280 303 343 344 344 352 20 41 69 99 93 98 95 84 69 42 40 50 42 33 29 23 18 11 357 339 325 315 304 278 241 225 219 214 209 206 205 211 230 241 250 257 265 275 282 286 285 281 280 279 275 272 270 267 265 267 270 272 276 281 283 285 288 292 297 299 296 293 292 293 294 294 292 292 291 287 278 263 252 249 252
15 294 300 330 202 265 308 317 201 227 305 164 152 210 266 273 288 312 336 333 336 352 63 91 99 97 96 99 91 83 75 71 74 73 57 44 39 29 29 27 18 6 342 336 341 325 230 205 201 203 201 199 200 205 221 238 248 254 258 267 274 277 278 275 275 273 270 270 269 269 269 270 273 277 280 283 285 287 291 295 299 298 295 293 294 295 296 297 297 297 296 295 291 280 267 258 255
356 208 247 267 205 262 318 325 235 119 63 122 144 235 283 282 282 300 324 335 343 33 93 96 93 86 88 86 83 86 82 82 81 71 60 51 46 40 39 39 37 34 25 20 9 356 347 178 187 197 198 198 200 203 217 233 245 254 259 263 267 269 272 272 274 272 269 269 268 268 268 270 273 277 279 280 284 288 292 296 297 297 297 296 295 295 296 297 298 298 299 299 298 293 282 271 265
304 278 226 246 212 205 285 308 339 34 67 307 344 244 260 271 281 302 334 350 10 79 99 95 89 81 82 80 79 80 77 77 70 64 63 58 57 55 51 50 47 44 38 31 21 14 13 22 49 170 189 196 197 198 209 220 228 240 247 252 256 258 259 262 266 271 270 270 269 269 268 267 266 268 274 277 282 286 289 291 293 294 295 296 296 295 295 295 297 299 300 302 302 298 292 287 282
224 199 202 253 246 230 244 267 303 3 6 303 330 276 262 272 286 326 356 355 30 88 101 96 90 85 83 81 78 76 74 73 69 68 71 73 74 70 66 63 58 54 53 49 42 37 35 40 43 50 86 133 160 169 173 179 194 206 215 228 233 232 232 240 247 252 259 262 263 264 264 266 264 266 271 273 275 278 282 284 286 287 288 289 291 292 295 296 299 300 300 302 302 299 297 295 294
199 191 172 199 244 257 239 239 260 296 322 288 261 255 267 275 292 354 0 11 72 95 97 90 89 87 84 82 78 78 77 76 76 81 84 87 85 78 72 66 61 62 64 65 64 63 62 59 52 56 66 66 75 114 137 150 164 175 185 201 210 207 205 225 229 223 228 237 242 246 250 256 259 260 263 267 271 273 276 279 282 283 283 283 285 287 290 293 295 297 298 300 300 299 298 298 298
146 145 165 217 238 269 254 243 269 184 205 277 248 234 266 274 304 2 4 45 73 80 86 85 87 86 85 85 82 81 80 81 88 93 93 92 86 82 81 81 83 84 82 81 80 78 75 74 73 70 69 67 69 78 99 159 179 181 188 198 201 189 194 233 241 227 225 227 227 231 238 245 247 246 245 248 255 262 268 272 274 276 277 278 280 282 283 285 287 291 295 297 298 299 299 299 299
140 156 266 272 243 262 264 247 281 146 166 264 300 252 272 279 346 15 32 61 55 61 84 86 88 89 88 87 86 87 89 95 101 100 100 99 96 95 94 92 90 87 85 83 81 80 79 80 79 77 77 78 78 74 70 74 94 139 205 216 220 221 226 245 253 254 257 254 249 248 247 250 251 251 252 251 253 256 260 263 264 265 268 271 275 279 281 281 283 287 290 294 297 298 298 298 298
212 164 229 271 245 271 288 293 329 51 158 262 340 313 280 305 26 30 47 66 63 74 91 92 94 93 91 91 92 96 99 102 103 102 102 101 100 99 95 92 89 87 86 84 82 81 81 80 79 79 79 79 78 77 76 76 75 73 69 71 69 37 257 280 278 273 275 275 271 265 260 256 255 256 257 258 259 260 261 263 265 266 267 268 271 276 278 279 282 286 291 294 295 295 295 296 297
187 157 173 253 249 273 284 303 343 29 163 255 275 272 279 313 65 47 52 74 79 82 91 92 94 95 96 100 101 103 103 101 102 102 102 102 101 98 95 92 90 89 87 84 82 80 79 79 78 78 78 77 77 76 76 76 76 76 76 78 78 80 83 75 55 28 326 304 294 282 272 263 260 260 259 261 262 263 263 264 266 267 268 268 269 272 274 276 279 283 288 291 294 295 294 295 295
242 199 199 236 241 214 228 285 330 338 357 4 25 313 288 268 168 92 74 81 78 79 86 85 88 97 104 108 107 107 105 103 104 103 103 103 101 98 95 94 91 88 85 82 81 79 78 78 77 77 76 76 75 74 74 75 77 78 80 83 84 87 89 90 89 81 66 37 12 347 317 288 275 270 267 266 266 266 267 267 268 268 268 268 267 268 269 272 274 277 280 281 285 291 292 292 291
294 233 209 222 232 224 229 316 358 358 339 346 29 340 294 305 199 173 134 78 66 69 75 80 91 102 108 109 108 109 107 105 105 104 104 102 100 98 96 93 90 86 83 81 80 79 79 79 79 79 78 77 76 75 75 75 77 79 80 83 85 87 89 87 82 77 73 64 52 42 29 6 344 329 312 299 287 282 279 276 276 274 272 270 268 266 265 267 269 271 274 274 275 279 282 284 284
313 250 204 213 222 219 219 176 70 269 260 298 45 19 280 303 241 188 155 98 79 65 63 80 100 106 111 112 112 112 109 107 107 106 105 103 100 98 94 91 88 85 83 82 82 82 81 81 81 81 81 81 80 80 80 79 79 80 79 80 82 83 82 79 75 73 72 67 61 57 52 43 36 31 23 17 3 342 325 309 301 294 289 284 279 274 268 267 267 267 269 270 270 270 272 275 276
255 247 152 158 176 190 194 149 145 226 263 316 12 90 271 284 268 195 140 115 91 75 70 86 110 117 119 120 120 117 113 111 110 108 106 103 100 96 93 90 87 85 85 84 83 81 81 81 81 82 83 84 84 84 84 82 80 79 78 77 79 79 79 79 78 76 75 73 71 68 62 57 54 52 51 48 44 36 22 4 348 331 320 311 304 297 289 283 277 273 270 269 268 267 268 270 271
248 218 112 120 144 149 123 107 109 350 6 307 295 116 262 270 276 116 131 139 166 166 164 152 139 137 133 131 128 121 117 114 111 109 106 102 99 96 93 91 89 87 86 83 80 78 78 79 81 82 84 84 85 84 83 81 79 79 78 75 76 78 78 80 81 81 79 77 75 70 64 59 56 57 59 58 57 55 49 39 26 9 353 341 331 323 316 311 304 296 288 281 276 272 269 269 270
209 132 94 72 75 78 73 92 95 28 339 247 217 171 231 273 273 165 176 236 213 180 184 188 165 154 146 141 135 127 120 116 113 110 107 103 100 97 94 93 91 88 84 80 77 77 76 78 79 81 83 84 84 82 81 81 80 79 78 76 77 78 80 82 85 82 77 72 70 67 61 54 49 49 52 52 53 52 51 46 40 30 19 6 354 344 336 332 326 319 312 303 295 288 281 275 273
134 104 58 35 31 42 46 59 80 37 291 233 199 189 191 262 282 194 192 251 184 158 164 196 182 169 162 152 143 133 125 120 117 113 110 106 103 101 99 97 94 89 85 82 79 78 77 77 75 76 83 85 82 80 78 78 79 77 76 77 78 80 80 80 78 76 71 67 64 60 55 50 45 43 42 42 43 43 41 38 36 31 24 14 4 356 349 345 342 336 328 319 311 303 296 289 284
104 83 60 34 339 9 22 358 47 115 261 258 225 202 175 229 271 243 244 308 181 170 170 182 185 178 170 160 151 140 132 126 122 118 114 111 109 108 106 101 97 95 92 88 84 81 78 78 72 71 82 83 77 74 71 70 72 70 69 70 69 68 65 60 58 59 58 56 55 53 50 46 40 37 34 31 31 30 27 25 24 21 16 12 5 359 354 350 347 342 337 332 323 313 304 298 294
81 91 87 66 325 356 353 311 37 232 253 271 256 152 177 237 247 277 288 306 290 229 186 175 176 175 171 165 157 147 139 133 127 124 120 118 117 114 112 108 105 106 101 95 91 85 81 82 75 68 79 81 74 70 66 64 65 64 62 59 58 55 48 44 41 41 40 37 36 32 27 24 20 18 18 18 19 18 14 11 11 9 7 5 2 358 354 351 348 344 341 339 332 325 318 310 304
136 141 128 127 121 51 297 275 274 274 272 288 270 141 247 271 271 248 267 289 295 249 190 177 172 169 168 165 160 153 145 139 134 131 128 125 124 120 117 114 112 110 106 102 99 90 84 85 78 71 81 81 74 70 65 61 61 61 57 54 52 48 42 38 34 32 30 25 22 16 13 12 9 8 8 8 9 7 4 2 1 359 357 354 351 349 348 348 347 344 343 341 335 332 330 326 320
172 156 136 145 149 164 226 230 221 262 285 299 297 167 198 233 265 262 261 306 332 175 169 169 168 168 167 165 163 158 151 147 143 140 138 134 129 125 121 117 115 111 109 112 109 102 98 95 89 87 90 86 78 72 66 62 60 57 53 50 48 44 40 36 32 28 23 18 14 8 5 3 1 1 360 358 356 354 353 353 350 347 344 342 339 338 337 337 338 339 339 339 336 333 331 330 326
214 120 112 161 175 171 211 210 180 193 298 294 224 215 221 194 222 310 333 48 67 122 148 157 164 169 169 169 168 163 157 154 152 150 147 141 134 131 129 128 128 127 128 132 128 125 124 117 114 112 105 97 86 77 67 60 56 49 44 40 37 34 31 26 22 16 11 8 4 358 355 353 352 349 347 345 343 341 339 339 338 337 335 333 331 331 329 329 329 330 330 330 330 328 327 328 326
167 120 181 218 169 137 147 265 60 84 261 269 198 235 290 304 284 348 37 72 79 112 145 158 167 172 174 176 173 168 164 160 159 159 156 149 142 142 147 148 151 151 151 154 149 145 141 135 134 127 116 109 96 81 70 61 51 38 29 25 21 17 13 9 6 2 358 355 349 345 343 340 337 335 334 334 332 331 329 327 327 326 325 324 324 324 324 323 323 323 323 323 323 322 321 323 323
127 176 211 190 118 99 105 244 340 31 246 269 269 213 259 266 255 346 31 183 187 170 171 171 175 179 183 183 178 173 169 166 167 169 166 160 154 158 166 167 169 168 168 166 157 152 149 146 144 138 132 126 114 97 80 62 44 26 15 10 6 1 359 356 354 349 345 340 334 330 329 327 326 324 324 324 322 321 321 320 319 319 318 318 318 319 319 318 318 317 318 318 319 318 316 316 317
127 184 191 120 149 191 98 162 223 253 250 276 296 263 238 214 215 215 210 208 199 193 193 190 190 191 191 189 184 179 176 175 177 176 175 171 168 176 180 180 181 177 176 175 169 168 167 162 157 151 146 137 122 100 74 49 30 17 4 358 353 349 347 344 341 338 333 328 324 321 320 319 319 318 317 317 316 315 314 313 313 313 314 314 315 316 316 315 315 314 314 314 314 314 312 312 312
70 105 8 62 166 180 161 154 176 212 244 266 292 297 271 233 205 186 204 201 181 180 194 201 199 195 194 191 186 185 184 183 183 183 183 182 182 190 191 190 192 189 190 189 182 177 169 161 154 148 140 129 113 87 64 36 17 7 355 349 344 340 339 336 332 330 326 323 320 318 316 314 314 314 313 313 313 313 312 311 312 312 312 312 312 313 314 314 313 313 313 312 311 311 309 308 308
157 174 223 249 214 155 223 233 130 151 196 220 265 279 268 253 198 186 207 195 177 186 193 192 194 195 194 191 188 189 189 188 189 189 190 191 194 201 199 198 200 195 190 184 176 171 166 159 153 147 141 133 118 52 8 353 350 349 344 341 338 334 332 330 329 328 325 324 321 318 315 312 312 312 311 310 310 310 310 309 310 310 311 312 312 312 313 312 311 311 311 311 310 309 308 307 306
165 184 203 200 185 147 240 258 211 125 176 181 212 263 269 258 216 211 215 191 189 196 189 179 188 193 193 193 193 195 194 194 196 197 198 200 204 209 205 199 194 185 179 175 172 172 170 167 166 165 171 193 292 315 324 328 331 334 333 333 332 331 329 328 329 329 328 327 324 321 318 315 313 312 311 312 311 310 309 308 308 309 309 309 310 310 310 310 310 309 308 308 308 308 306 305 305